Location: Niedergestelen
(46.3129°N, 7.7822°E)
Time: 05:26:18
(UTC+00:00)

Okean O Rocket - Pass Details

Date: 01 December 2020
Orbit: 623 x 644 km, 98.2° (Epoch: 18 January)

Event Time Altitude Azimuth Distance (km) Brightness Sun altitude
Rises 17:56:34 0° 201° (SSW) 2,899 5.4 -22.2°
Reaches altitude 10° 17:59:12 10° 217° (SW) 2,001 4.8 -22.6°
Maximum altitude 18:02:31 21° 267° (W) 1,422 4.2 -23.2°
Drops below altitude 10° 18:05:52 10° 317° (NW) 2,023 4.6 -23.7°
Sets 18:08:33 0° 333° (NNW) 2,942 5.3 -24.2°
